TimeCST,TemperatureF,Dew PointF,Humidity,Sea Level PressureIn,VisibilityMPH,Wind Direction,Wind SpeedMPH,Gust SpeedMPH,PrecipitationIn,Events,Conditions,WindDirDegrees,DateUTC
12:05 AM,35.6,32.0,87,30.33,10.0,Calm,Calm,-,N/A,,Clear,0,2012-11-19 06:05:00
12:25 AM,33.8,32.0,93,30.33,10.0,Calm,Calm,-,N/A,,Clear,0,2012-11-19 06:25:00
12:45 AM,33.8,32.0,93,30.32,10.0,Calm,Calm,-,N/A,,Clear,0,2012-11-19 06:45:00
1:05 AM,33.8,32.0,93,30.32,10.0,Calm,Calm,-,N/A,,Clear,0,2012-11-19 07:05:00
1:25 AM,33.8,32.0,93,30.32,10.0,Calm,Calm,-,N/A,,Clear,0,2012-11-19 07:25:00
1:45 AM,32.0,32.0,100,30.31,10.0,WNW,3.5,-,N/A,,Clear,300,2012-11-19 07:45:00
2:25 AM,32.0,32.0,100,30.31,10.0,Calm,Calm,-,N/A,,Clear,0,2012-11-19 08:25:00
2:45 AM,32.0,30.2,93,30.31,10.0,Calm,Calm,-,N/A,,Clear,0,2012-11-19 08:45:00
3:05 AM,32.0,32.0,100,30.31,10.0,Calm,Calm,-,N/A,,Clear,0,2012-11-19 09:05:00
3:25 AM,32.0,32.0,100,30.31,10.0,Calm,Calm,-,N/A,,Clear,0,2012-11-19 09:25:00
3:45 AM,32.0,32.0,100,30.31,10.0,Calm,Calm,-,N/A,,Clear,0,2012-11-19 09:45:00
4:05 AM,32.0,32.0,100,30.31,10.0,Calm,Calm,-,N/A,,Clear,0,2012-11-19 10:05:00
8:40 AM,41.0,35.6,81,30.34,10.0,Calm,Calm,-,N/A,,Clear,0,2012-11-19 14:40:00
9:00 AM,46.4,37.4,71,30.34,10.0,Calm,Calm,-,N/A,,Clear,0,2012-11-19 15:00:00
9:25 AM,50.0,39.2,66,30.34,10.0,SE,3.5,-,N/A,,Clear,140,2012-11-19 15:25:00
9:45 AM,53.6,39.2,58,30.34,10.0,SE,4.6,-,N/A,,Clear,130,2012-11-19 15:45:00
10:05 AM,55.4,39.2,54,30.34,10.0,SE,3.5,-,N/A,,Clear,130,2012-11-19 16:05:00
10:25 AM,59.0,39.2,48,30.33,10.0,SE,3.5,-,N/A,,Clear,130,2012-11-19 16:25:00
10:45 AM,59.0,39.2,48,30.32,10.0,SE,3.5,-,N/A,,Clear,140,2012-11-19 16:45:00
11:05 AM,60.8,39.2,45,30.31,10.0,ESE,3.5,-,N/A,,Clear,110,2012-11-19 17:05:00
11:25 AM,62.6,39.2,42,30.30,10.0,Calm,Calm,-,N/A,,Clear,0,2012-11-19 17:25:00
12:05 PM,64.4,41.0,42,30.28,10.0,Calm,Calm,-,N/A,,Clear,0,2012-11-19 18:05:00
12:25 PM,64.4,41.0,42,30.28,10.0,Calm,Calm,-,N/A,,Clear,0,2012-11-19 18:25:00
12:45 PM,64.4,41.0,42,30.27,10.0,Calm,Calm,-,N/A,,Clear,0,2012-11-19 18:45:00
1:05 PM,64.4,41.0,42,30.26,10.0,Calm,Calm,-,N/A,,Clear,0,2012-11-19 19:05:00
1:25 PM,66.2,41.0,40,30.25,10.0,South,3.5,-,N/A,,Clear,170,2012-11-19 19:25:00
1:45 PM,66.2,41.0,40,30.24,10.0,SE,4.6,-,N/A,,Clear,140,2012-11-19 19:45:00
2:05 PM,64.4,41.0,42,30.23,10.0,South,4.6,-,N/A,,Clear,170,2012-11-19 20:05:00
2:25 PM,66.2,41.0,40,30.22,10.0,SSW,3.5,-,N/A,,Clear,210,2012-11-19 20:25:00
2:45 PM,66.2,41.0,40,30.21,10.0,South,5.8,-,N/A,,Clear,190,2012-11-19 20:45:00
3:05 PM,64.4,41.0,42,30.21,10.0,SSE,5.8,-,N/A,,Clear,150,2012-11-19 21:05:00
3:25 PM,64.4,41.0,42,30.21,10.0,South,3.5,-,N/A,,Clear,190,2012-11-19 21:25:00
3:45 PM,64.4,41.0,42,30.21,10.0,South,6.9,-,N/A,,Clear,190,2012-11-19 21:45:00
4:05 PM,62.6,41.0,45,30.21,10.0,SSW,3.5,-,N/A,,Clear,200,2012-11-19 22:05:00
4:25 PM,62.6,41.0,45,30.21,10.0,SW,3.5,-,N/A,,Clear,220,2012-11-19 22:25:00
4:45 PM,60.8,41.0,48,30.20,10.0,SSW,3.5,-,N/A,,Clear,200,2012-11-19 22:45:00
5:05 PM,53.6,41.0,62,30.20,10.0,Calm,Calm,-,N/A,,Clear,0,2012-11-19 23:05:00
5:25 PM,55.4,41.0,58,30.21,10.0,Calm,Calm,-,N/A,,Partly Cloudy,0,2012-11-19 23:25:00
5:45 PM,50.0,41.0,71,30.22,10.0,Calm,Calm,-,N/A,,Partly Cloudy,0,2012-11-19 23:45:00
6:05 PM,50.0,41.0,71,30.22,10.0,Calm,Calm,-,N/A,,Clear,0,2012-11-20 00:05:00
6:25 PM,50.0,41.0,71,30.22,10.0,Calm,Calm,-,N/A,,Clear,0,2012-11-20 00:25:00
6:45 PM,50.0,41.0,71,30.23,10.0,Calm,Calm,-,N/A,,Clear,0,2012-11-20 00:45:00
7:05 PM,50.0,41.0,71,30.23,10.0,Calm,Calm,-,N/A,,Clear,0,2012-11-20 01:05:00
7:25 PM,48.2,41.0,76,30.22,10.0,Calm,Calm,-,N/A,,Clear,0,2012-11-20 01:25:00
7:45 PM,50.0,41.0,71,30.22,9.0,Calm,Calm,-,N/A,,Clear,0,2012-11-20 01:45:00
8:05 PM,46.4,41.0,81,30.22,10.0,Calm,Calm,-,N/A,,Clear,0,2012-11-20 02:05:00
8:25 PM,48.2,41.0,76,30.21,10.0,SSE,3.5,-,N/A,,Clear,150,2012-11-20 02:25:00
8:45 PM,44.6,41.0,87,30.21,10.0,Calm,Calm,-,N/A,,Clear,0,2012-11-20 02:45:00
9:05 PM,46.4,41.0,81,30.22,10.0,Calm,Calm,-,N/A,,Clear,0,2012-11-20 03:05:00
9:25 PM,44.6,41.0,87,30.22,10.0,Calm,Calm,-,N/A,,Clear,0,2012-11-20 03:25:00
9:45 PM,44.6,41.0,87,30.21,10.0,Calm,Calm,-,N/A,,Clear,0,2012-11-20 03:45:00
10:05 PM,42.8,39.2,87,30.20,10.0,Calm,Calm,-,N/A,,Clear,0,2012-11-20 04:05:00
10:25 PM,42.8,39.2,87,30.20,10.0,West,3.5,-,N/A,,Clear,280,2012-11-20 04:25:00
10:45 PM,41.0,39.2,93,30.20,10.0,Calm,Calm,-,N/A,,Clear,0,2012-11-20 04:45:00
11:05 PM,41.0,39.2,93,30.21,10.0,Calm,Calm,-,N/A,,Clear,0,2012-11-20 05:05:00
11:25 PM,41.0,39.2,93,30.21,10.0,Calm,Calm,-,N/A,,Clear,0,2012-11-20 05:25:00
11:45 PM,42.8,39.2,87,30.19,10.0,SSE,3.5,-,N/A,,Clear,150,2012-11-20 05:45:00